When you browse on this site, cookies collect data to enhance your experience and personalize the content and advertising you see.
Visit our Privacy Policy to learn more. By continuing to use the site, you agree to this use of cookies and data.
  • In United Kingdom
  • List of Countries
  • For 7 days
  • Water Temperature
  • Satellite Maps
  • Weather Map
  • Weather Widgets
  • user-avatar
    Login

    Hourly Weather Amirobod

    Today, 26 March, Tuesday

    Time Temperature Precipitation Wind Pressure Humidity
    00:00 +21°C° 0 mm 2 mps 747 mmHg 34%
    01:00 +21°C° 0 mm 2 mps 747 mmHg 36%
    02:00 +20°C° 0 mm 2 mps 747 mmHg 37%
    03:00 +20°C° 0 mm 3 mps 747 mmHg 39%
    04:00 +19°C° 0 mm 3 mps 748 mmHg 40%
    05:00 +18°C° 0 mm 4 mps 748 mmHg 43%
    06:00 +17°C° 0 mm 4 mps 749 mmHg 45%
    07:00 +17°C° 0 mm 4 mps 749 mmHg 47%
    08:00 +17°C° 0 mm 4 mps 750 mmHg 47%
    09:00 +17°C° 0 mm 4 mps 750 mmHg 46%
    10:00 +17°C° 0 mm 4 mps 750 mmHg 45%
    11:00 +17°C° 0 mm 4 mps 750 mmHg 44%
    12:00 +18°C° 0 mm 4 mps 750 mmHg 43%
    13:00 +18°C° 0 mm 4 mps 750 mmHg 41%
    14:00 +19°C° 0 mm 4 mps 750 mmHg 41%
    15:00 +19°C° 0 mm 4 mps 750 mmHg 41%
    16:00 +19°C° 0 mm 4 mps 750 mmHg 41%
    17:00 +19°C° 0 mm 4 mps 750 mmHg 44%
    18:00 +18°C° 0 mm 4 mps 750 mmHg 48%
    19:00 +16°C° 0 mm 5 mps 751 mmHg 51%
    20:00 +15°C° 0 mm 5 mps 751 mmHg 54%
    21:00 +15°C° 0 mm 4 mps 751 mmHg 57%
    22:00 +14°C° 0 mm 4 mps 751 mmHg 61%
    23:00 +14°C° 0 mm 4 mps 751 mmHg 63%

    Tomorrow, 27 March, Wednesday

    Time Temperature Precipitation Wind Pressure Humidity
    00:00 +13°C° 0 mm 5 mps 751 mmHg 65%
    01:00 +13°C° 0 mm 5 mps 751 mmHg 67%
    02:00 +13°C° 0 mm 5 mps 750 mmHg 68%
    03:00 +13°C° 0 mm 5 mps 750 mmHg 68%
    04:00 +13°C° 0 mm 6 mps 749 mmHg 69%
    05:00 +12°C° 0.5 mm 5 mps 750 mmHg 72%
    06:00 +12°C° 0.5 mm 5 mps 750 mmHg 75%
    07:00 +12°C° 0.5 mm 4 mps 750 mmHg 77%
    08:00 +12°C° 1.1 mm 4 mps 750 mmHg 79%
    09:00 +12°C° 1.1 mm 4 mps 749 mmHg 81%
    10:00 +12°C° 1.1 mm 4 mps 749 mmHg 82%
    11:00 +12°C° 0.5 mm 3 mps 749 mmHg 82%
    12:00 +13°C° 0.5 mm 3 mps 749 mmHg 82%
    13:00 +14°C° 0.5 mm 2 mps 748 mmHg 82%
    14:00 +14°C° 0.1 mm 2 mps 748 mmHg 80%
    15:00 +15°C° 0.1 mm 2 mps 748 mmHg 77%
    16:00 +15°C° 0.1 mm 2 mps 748 mmHg 75%
    17:00 +15°C° 0 mm 2 mps 748 mmHg 75%
    18:00 +15°C° 0 mm 2 mps 748 mmHg 75%
    19:00 +14°C° 0 mm 2 mps 749 mmHg 75%
    20:00 +13°C° 0 mm 3 mps 749 mmHg 75%
    21:00 +13°C° 0 mm 3 mps 749 mmHg 76%
    22:00 +13°C° 0 mm 3 mps 749 mmHg 76%
    23:00 +12°C° 0 mm 4 mps 749 mmHg 76%

    Day after tomorrow, 28 March, Thursday

    Time Temperature Precipitation Wind Pressure Humidity
    00:00 +12°C° 0 mm 5 mps 750 mmHg 76%
    01:00 +11°C° 0 mm 6 mps 750 mmHg 76%
    02:00 +10°C° 0 mm 6 mps 750 mmHg 76%
    03:00 +10°C° 0 mm 5 mps 750 mmHg 76%
    04:00 +9°C° 0 mm 5 mps 750 mmHg 76%
    05:00 +9°C° 0 mm 5 mps 750 mmHg 76%
    06:00 +9°C° 0 mm 5 mps 751 mmHg 76%
    07:00 +9°C° 0 mm 6 mps 751 mmHg 77%
    08:00 +11°C° 0 mm 6 mps 751 mmHg 71%
    09:00 +12°C° 0 mm 7 mps 752 mmHg 65%
    10:00 +14°C° 0 mm 7 mps 752 mmHg 58%
    11:00 +15°C° 0 mm 7 mps 752 mmHg 55%
    12:00 +16°C° 0 mm 7 mps 752 mmHg 52%
    13:00 +16°C° 0 mm 7 mps 752 mmHg 49%
    14:00 +16°C° 0 mm 7 mps 751 mmHg 48%
    15:00 +16°C° 0 mm 6 mps 751 mmHg 48%
    16:00 +16°C° 0 mm 6 mps 751 mmHg 48%
    17:00 +15°C° 0 mm 5 mps 751 mmHg 49%
    18:00 +15°C° 0 mm 4 mps 752 mmHg 51%
    19:00 +14°C° 0 mm 3 mps 752 mmHg 53%
    20:00 +14°C° 0 mm 3 mps 752 mmHg 55%
    21:00 +13°C° 0 mm 3 mps 752 mmHg 57%
    22:00 +14°C° 0 mm 2 mps 752 mmHg 59%
    23:00 +13°C° 0 mm 2 mps 752 mmHg 60%

    29 March, Friday

    Time Temperature Precipitation Wind Pressure Humidity
    00:00 +13°C° 0 mm 2 mps 752 mmHg 62%
    01:00 +12°C° 0 mm 2 mps 752 mmHg 63%
    02:00 +12°C° 0 mm 2 mps 752 mmHg 65%
    03:00 +11°C° 0 mm 1 mps 753 mmHg 66%
    04:00 +11°C° 0 mm 1 mps 753 mmHg 68%
    05:00 +11°C° 0 mm 1 mps 753 mmHg 66%
    06:00 +12°C° 0 mm 1 mps 754 mmHg 64%
    07:00 +12°C° 0 mm 1 mps 754 mmHg 62%
    08:00 +13°C° 0 mm 1 mps 754 mmHg 57%
    09:00 +14°C° 0 mm 2 mps 754 mmHg 53%
    10:00 +14°C° 0 mm 3 mps 755 mmHg 48%
    11:00 +16°C° 0 mm 3 mps 754 mmHg 44%
    12:00 +17°C° 0 mm 3 mps 754 mmHg 41%
    13:00 +17°C° 0 mm 4 mps 754 mmHg 37%
    14:00 +18°C° 0 mm 3 mps 754 mmHg 35%
    15:00 +18°C° 0 mm 3 mps 754 mmHg 33%
    16:00 +18°C° 0 mm 3 mps 754 mmHg 32%
    17:00 +18°C° 0 mm 3 mps 754 mmHg 31%
    18:00 +17°C° 0 mm 2 mps 755 mmHg 31%
    19:00 +17°C° 0 mm 2 mps 755 mmHg 31%
    20:00 +16°C° 0 mm 2 mps 755 mmHg 30%
    21:00 +16°C° 0 mm 2 mps 756 mmHg 29%
    22:00 +15°C° 0 mm 2 mps 756 mmHg 29%
    23:00 +15°C° 0 mm 2 mps 756 mmHg 29%

    30 March, Saturday

    Time Temperature Precipitation Wind Pressure Humidity
    00:00 +14°C° 0 mm 2 mps 756 mmHg 30%
    01:00 +14°C° 0 mm 2 mps 756 mmHg 30%
    02:00 +13°C° 0 mm 2 mps 756 mmHg 32%
    03:00 +13°C° 0 mm 2 mps 756 mmHg 33%
    04:00 +12°C° 0 mm 3 mps 756 mmHg 34%
    05:00 +12°C° 0 mm 3 mps 757 mmHg 36%
    06:00 +13°C° 0 mm 2 mps 757 mmHg 38%
    07:00 +14°C° 0 mm 2 mps 757 mmHg 40%
    08:00 +14°C° 0 mm 3 mps 757 mmHg 39%
    09:00 +17°C° 0 mm 3 mps 757 mmHg 37%
    10:00 +18°C° 0 mm 4 mps 757 mmHg 36%
    11:00 +19°C° 0 mm 4 mps 757 mmHg 34%
    12:00 +20°C° 0 mm 4 mps 757 mmHg 31%
    13:00 +21°C° 0 mm 4 mps 756 mmHg 29%
    14:00 +22°C° 0 mm 4 mps 756 mmHg 29%
    15:00 +22°C° 0 mm 4 mps 756 mmHg 28%
    16:00 +22°C° 0 mm 4 mps 755 mmHg 28%
    17:00 +22°C° 0 mm 3 mps 755 mmHg 29%
    18:00 +21°C° 0 mm 3 mps 756 mmHg 31%
    19:00 +21°C° 0 mm 2 mps 756 mmHg 32%
    20:00 +18°C° 0 mm 4 mps 756 mmHg 39%
    21:00 +15°C° 0 mm 6 mps 756 mmHg 46%
    22:00 +12°C° 0 mm 8 mps 757 mmHg 53%
    23:00 +11°C° 0 mm 8 mps 757 mmHg 57%

    31 March, Sunday

    Time Temperature Precipitation Wind Pressure Humidity
    00:00 +9°C° 0 mm 8 mps 757 mmHg 60%
    01:00 +7°C° 0 mm 9 mps 757 mmHg 64%
    02:00 +7°C° 0.9 mm 8 mps 758 mmHg 69%
    03:00 +7°C° 0.9 mm 6 mps 758 mmHg 74%
    04:00 +6°C° 0.9 mm 5 mps 758 mmHg 79%
    05:00 +6°C° 0.4 mm 5 mps 758 mmHg 76%
    06:00 +6°C° 0.4 mm 5 mps 759 mmHg 74%
    07:00 +6°C° 0.4 mm 5 mps 759 mmHg 71%
    08:00 +8°C° 0 mm 5 mps 760 mmHg 61%
    09:00 +9°C° 0 mm 5 mps 760 mmHg 51%
    10:00 +10°C° 0 mm 5 mps 760 mmHg 41%
    11:00 +12°C° 0 mm 5 mps 760 mmHg 36%
    12:00 +13°C° 0 mm 4 mps 760 mmHg 31%
    13:00 +14°C° 0 mm 4 mps 759 mmHg 26%
    14:00 +14°C° 0 mm 4 mps 759 mmHg 25%
    15:00 +15°C° 0 mm 5 mps 759 mmHg 25%
    16:00 +15°C° 0 mm 5 mps 759 mmHg 24%
    17:00 +14°C° 0 mm 5 mps 759 mmHg 25%
    18:00 +14°C° 0 mm 5 mps 759 mmHg 27%
    19:00 +13°C° 0 mm 5 mps 759 mmHg 29%
    20:00 +13°C° 0 mm 5 mps 759 mmHg 30%
    21:00 +12°C° 0 mm 5 mps 759 mmHg 32%
    22:00 +12°C° 0 mm 5 mps 759 mmHg 34%
    23:00 +10°C° 0 mm 5 mps 759 mmHg 35%
    Show more